Freeport, IL

3:17 AM CST on December 07, 2019 (GMT -0600)
Albertus

Weather History for KFEP - October, 2019

Change the Weather History Date:

Thursday, October 3, 2019

  Actual Average Record
Temperature  
Mean Temperature 51 °F -  
Max Temperature 57 °F 66 °F 87 °F (2006)
Min Temperature 45 °F 41 °F 23 °F (1974)
Degree Days  
Heating Degree Days 14    
Growing Degree Days 1 (Base 50)    
Moisture  
Dew Point 50 °F    
Average Humidity 86    
Maximum Humidity 100    
Minimum Humidity 66    
Precipitation  
Precipitation 0.05 in - - ()
Sea Level Pressure  
Sea Level Pressure 30.12 in    
Wind  
Wind Speed 7 mph (NW)    
Max Wind Speed 20 mph    
Max Gust Speed 25 mph    
Visibility 9 miles    
Events Rain , Thunderstorm    
Averages and records for this station are not official NWS values.
T = Trace of Precipitation, MM = Missing Value Source: NWS Daily Summary

Daily Weather History Graph

Daily Weather History Graph

Search for Another Location

Airport or City:

Astronomy

Oct. 03, 2019 Rise Set
Actual Time 6:57 AM CDT 6:36 PM CDT
Civil Twilight 6:29 AM CDT 7:04 PM CDT
Nautical Twilight 5:56 AM CDT 7:37 PM CDT
Astronomical Twilight 5:24 AM CDT 8:09 PM CDT
Moon 12:34 PM CDT (10/3) 10:10 PM CDT (10/3)
Length of Visible Light 12h 35m
Length of Day
11h 39m
Waxing Crescent, 30% of the Moon is Illuminated
Oct 3
Waxing Crescent
Oct 5
First Quarter
Oct 13
Full
Oct 21
Last Quarter
Oct 27
New

Hourly Weather History & Observations

Time (CDT) Temp. Windchill Dew Point Humidity Pressure Visibility Wind Dir Wind Speed Gust Speed Precip Events Conditions
12:15 AM 55.0 °F - 55.0 °F 100% 29.94 in 10.0 mi ESE 4.6 mph - 0.01 in   Overcast
12:35 AM 55.4 °F - 55.4 °F 100% 29.94 in 10.0 mi ESE 3.5 mph - 0.02 in   Overcast
12:55 AM 55.4 °F - 55.4 °F 100% 29.93 in 5.0 mi East 3.5 mph - 0.02 in Thunderstorm Overcast
1:15 AM 55.4 °F - 55.4 °F 100% 29.93 in 5.0 mi Calm Calm - N/A   Overcast
1:35 AM 55.6 °F - 55.6 °F 100% 29.92 in 3.0 mi Calm Calm - 0.01 in   Overcast
1:55 AM 55.8 °F - 55.8 °F 100% 29.93 in 4.0 mi Calm Calm - 0.01 in   Overcast
2:15 AM 55.8 °F - 55.8 °F 100% 29.94 in 7.0 mi Calm Calm - 0.01 in   Overcast
2:35 AM 55.9 °F - 55.9 °F 100% 29.94 in 4.0 mi Calm Calm - 0.01 in Rain Light Rain
2:55 AM 55.9 °F - 55.9 °F 100% 29.94 in 2.0 mi Calm Calm - 0.01 in   Light Drizzle
3:15 AM 56.3 °F - 56.3 °F 100% 29.95 in 5.0 mi Calm Calm - 0.01 in   Overcast
3:35 AM 56.1 °F - 56.1 °F 100% 29.94 in 10.0 mi Calm Calm - 0.01 in   Overcast
3:55 AM 56.3 °F - 56.3 °F 100% 29.96 in 10.0 mi Calm Calm - 0.01 in   Overcast
4:15 AM 56.3 °F - 56.3 °F 100% 29.96 in 10.0 mi WNW 3.5 mph - N/A   Overcast
4:35 AM 56.3 °F - 56.3 °F 100% 29.96 in 10.0 mi WNW 3.5 mph - N/A   Overcast
4:55 AM 56.3 °F - 56.3 °F 100% 29.96 in 10.0 mi WNW 3.5 mph - N/A   Overcast
5:15 AM 56.3 °F - 56.3 °F 100% 29.97 in 10.0 mi West 4.6 mph - N/A   Overcast
5:35 AM 56.3 °F - 56.3 °F 100% 29.98 in 7.0 mi WNW 6.9 mph - N/A   Overcast
5:55 AM 56.3 °F - 56.3 °F 100% 29.99 in 4.0 mi WNW 6.9 mph - N/A   Overcast
6:15 AM 56.3 °F - 56.3 °F 100% 29.99 in 2.5 mi WNW 6.9 mph - N/A   Overcast
6:35 AM 56.3 °F - 56.3 °F 100% 30.00 in 3.0 mi WNW 8.1 mph - N/A   Overcast
6:55 AM 56.5 °F - 56.5 °F 100% 30.01 in 4.0 mi West 6.9 mph - N/A   Overcast
7:15 AM 56.7 °F - 56.7 °F 100% 30.01 in 10.0 mi WNW 8.1 mph - N/A   Overcast
7:35 AM 57.2 °F - 57.2 °F 100% 30.02 in 10.0 mi WNW 11.5 mph 16.1 mph N/A   Overcast
7:55 AM 57.2 °F - 57.2 °F 100% 30.04 in 7.0 mi WNW 6.9 mph - N/A   Overcast
8:15 AM 57.4 °F - 57.4 °F 100% 30.05 in 4.0 mi WNW 12.7 mph 18.4 mph N/A   Overcast
8:35 AM 57.4 °F - 57.4 °F 100% 30.06 in 3.0 mi WNW 6.9 mph - N/A   Overcast
8:55 AM 57.2 °F - 57.2 °F 100% 30.06 in 7.0 mi West 10.4 mph - N/A   Overcast
9:15 AM 56.8 °F - 56.7 °F 99% 30.08 in 10.0 mi WNW 15.0 mph 23.0 mph N/A   Overcast
9:35 AM 56.1 °F - 55.4 °F 97% 30.08 in 10.0 mi WNW 15.0 mph 20.7 mph N/A   Overcast
9:55 AM 56.3 °F - 54.3 °F 93% 30.09 in 10.0 mi NW 18.4 mph 25.3 mph N/A   Overcast
10:15 AM 56.8 °F - 53.1 °F 87% 30.10 in 10.0 mi WNW 17.3 mph 24.2 mph N/A   Overcast
10:35 AM 55.0 °F - 51.8 °F 89% 30.12 in 10.0 mi WNW 17.3 mph 25.3 mph N/A   Overcast
10:55 AM 53.8 °F - 51.3 °F 91% 30.13 in 10.0 mi WNW 16.1 mph - N/A   Overcast
11:15 AM 53.8 °F - 49.6 °F 86% 30.13 in 10.0 mi NW 15.0 mph 20.7 mph N/A   Overcast
11:35 AM 54.3 °F - 48.9 °F 82% 30.14 in 10.0 mi WNW 16.1 mph 24.2 mph N/A   Overcast
11:55 AM 54.5 °F - 48.6 °F 80% 30.14 in 10.0 mi WNW 15.0 mph 25.3 mph N/A   Overcast
12:15 PM 55.9 °F - 48.2 °F 75% 30.15 in 10.0 mi NW 16.1 mph 23.0 mph N/A   Overcast
12:35 PM 55.0 °F - 48.6 °F 79% 30.15 in 10.0 mi WNW 16.1 mph 23.0 mph N/A   Overcast
12:55 PM 55.4 °F - 47.5 °F 75% 30.16 in 10.0 mi WNW 15.0 mph 21.9 mph N/A   Overcast
1:15 PM 55.4 °F - 47.3 °F 74% 30.16 in 10.0 mi NW 13.8 mph 21.9 mph N/A   Overcast
1:35 PM 56.8 °F - 47.8 °F 72% 30.16 in 10.0 mi WNW 16.1 mph 19.6 mph N/A   Overcast
1:55 PM 55.9 °F - 45.7 °F 68% 30.16 in 10.0 mi WNW 19.6 mph 24.2 mph N/A   Mostly Cloudy
2:15 PM 57.7 °F - 46.6 °F 66% 30.16 in 10.0 mi WNW 17.3 mph 24.2 mph N/A   Overcast
2:35 PM 55.8 °F - 46.8 °F 72% 30.16 in 10.0 mi NW 11.5 mph 19.6 mph N/A   Mostly Cloudy
2:55 PM 55.6 °F - 46.4 °F 71% 30.17 in 10.0 mi NW 13.8 mph 21.9 mph N/A   Overcast
3:15 PM 55.8 °F - 46.8 °F 72% 30.18 in 10.0 mi WNW 15.0 mph 20.7 mph N/A   Overcast
3:35 PM 55.4 °F - 46.0 °F 71% 30.19 in 10.0 mi NW 13.8 mph 17.3 mph N/A   Overcast
3:55 PM 56.5 °F - 45.9 °F 68% 30.19 in 10.0 mi WNW 16.1 mph 21.9 mph N/A   Mostly Cloudy
4:15 PM 55.6 °F - 44.6 °F 67% 30.19 in 10.0 mi NW 15.0 mph 21.9 mph N/A   Mostly Cloudy
4:35 PM 55.6 °F - 45.1 °F 68% 30.20 in 10.0 mi NW 13.8 mph 21.9 mph N/A   Mostly Cloudy
4:55 PM 54.3 °F - 44.1 °F 68% 30.21 in 10.0 mi NW 15.0 mph 25.3 mph N/A   Scattered Clouds
5:15 PM 55.6 °F - 44.2 °F 66% 30.21 in 10.0 mi NNW 11.5 mph 19.6 mph N/A   Clear
5:35 PM 54.5 °F - 43.9 °F 67% 30.22 in 10.0 mi NW 12.7 mph 20.7 mph N/A   Scattered Clouds
5:55 PM 53.6 °F - 43.9 °F 70% 30.22 in 10.0 mi NW 8.1 mph - N/A   Clear
6:15 PM 52.9 °F - 43.5 °F 71% 30.23 in 10.0 mi NW 9.2 mph - N/A   Clear
6:35 PM 51.6 °F - 43.7 °F 74% 30.24 in 10.0 mi NW 9.2 mph - N/A   Clear
6:55 PM 51.4 °F - 43.3 °F 74% 30.24 in 10.0 mi NW 6.9 mph - N/A   Clear
7:15 PM 50.7 °F - 43.7 °F 77% 30.24 in 10.0 mi NW 6.9 mph - N/A   Clear
7:35 PM 50.9 °F - 43.2 °F 75% 30.25 in 10.0 mi NNW 6.9 mph - N/A   Clear
7:55 PM 50.0 °F - 43.2 °F 77% 30.26 in 10.0 mi NNW 5.8 mph - N/A   Clear
8:15 PM 48.9 °F - 43.7 °F 82% 30.27 in 10.0 mi NNW 6.9 mph - N/A   Clear
8:35 PM 48.4 °F - 43.9 °F 84% 30.27 in 10.0 mi NW 9.2 mph - N/A   Clear
8:55 PM 48.4 °F - 44.2 °F 86% 30.28 in 10.0 mi NNW 9.2 mph - N/A   Clear
9:15 PM 48.6 °F - 43.7 °F 83% 30.28 in 10.0 mi NNW 6.9 mph - N/A   Clear
9:35 PM 48.2 °F - 43.2 °F 83% 30.29 in 10.0 mi NNW 10.4 mph - N/A   Clear
9:55 PM 48.2 °F - 42.6 °F 81% 30.30 in 10.0 mi NNW 9.2 mph - N/A   Clear
10:15 PM 47.3 °F - 42.3 °F 83% 30.30 in 10.0 mi NNW 9.2 mph - N/A   Clear
10:35 PM 46.9 °F - 42.1 °F 83% 30.31 in 10.0 mi NNW 6.9 mph - N/A   Clear
10:55 PM 46.8 °F - 41.9 °F 83% 30.31 in 10.0 mi North 8.1 mph - N/A   Clear
11:15 PM 46.4 °F 42.9 °F 41.9 °F 84% 30.31 in 10.0 mi North 6.9 mph - N/A   Clear
11:35 PM 45.9 °F 41.2 °F 41.9 °F 86% 30.32 in 10.0 mi North 9.2 mph - N/A   Clear
11:55 PM 45.5 °F 43.2 °F 41.9 °F 87% 30.33 in 10.0 mi North 4.6 mph - N/A   Clear